FW0807 Weather Reports


Display with metric or nautical units.
time (UTC)temp
F
wind
direction
speed
MPH
gust
MPH
rain 1hr
in
rain 24hr
in
rain mn
in
humidity
%
barometer
mb
20260508193131 74 256 4.0 12.0 0.00 0.00 0.00 55 1011.1
20260508191550 74 196 3.0 7.0 0.00 0.00 0.00 58 1011.2
20260508190052 74 159 4.0 10.0 0.00 0.00 0.00 57 1011.6
20260508184546 73 180 3.0 7.0 0.00 0.00 0.00 60 1011.7
20260508183104 73 162 3.0 10.0 0.00 0.00 0.00 58 1012.0
20260508181549 72 217 4.0 12.0 0.00 0.00 0.00 57 1012.4
20260508180038 72 184 7.0 14.0 0.00 0.00 0.00 56 1012.7
20260508174535 72 257 4.0 11.0 0.00 0.00 0.00 57 1013.0
20260508173030 71 171 5.0 9.0 0.00 0.00 0.00 58 1013.4
20260508171527 71 307 5.0 16.0 0.00 0.00 0.00 60 1013.7
20260508170023 71 192 4.0 12.0 0.00 0.00 0.00 61 1014.1
20260508164520 70 169 6.0 11.0 0.00 0.00 0.00 62 1014.3
20260508163023 69 222 5.0 11.0 0.00 0.00 0.00 63 1014.5
20260508161513 69 168 5.0 12.0 0.00 0.00 0.00 65 1014.5
20260508160008 69 176 5.0 17.0 0.00 0.00 0.00 66 1014.8
20260508154504 68 169 4.0 11.0 0.00 0.00 0.00 67 1015.1
20260508153001 68 194 3.0 11.0 0.00 0.00 0.00 69 1015.1
20260508151609 67 171 7.0 11.0 0.00 0.00 0.00 69 1015.2
20260508150055 66 187 3.0 10.0 0.00 0.00 0.00 72 1015.2
20260508144606 65 178 5.0 10.0 0.00 0.00 0.00 73 1015.4
20260508143047 64 268 2.0 11.0 0.00 0.00 0.00 76 1015.6
20260508141542 63 225 4.0 9.0 0.00 0.00 0.00 79 1015.8
20260508140038 62 165 2.0 8.0 0.00 0.00 0.00 80 1016.0
20260508134543 60 195 4.0 7.0 0.00 0.00 0.00 83 1016.0
20260508133044 58 202 3.0 7.0 0.00 0.00 0.00 91 1016.1
20260508131523 56 200 2.0 4.0 0.00 0.00 0.00 97 1016.2
20260508130019 53 211 1.0 4.0 0.00 0.00 0.00 98 1016.1
20260508124517 50 327 0.0 0.0 0.00 0.00 0.00 98 1016.1
20260508123024 48 326 0.0 0.0 0.00 0.00 0.00 98 1016.1
20260508121511 45 318 0.0 0.0 0.00 0.00 0.00 97 1016.1
20260508120006 43 318 0.0 0.0 0.00 0.00 0.00 97 1015.9
20260508114505 43 318 0.0 0.0 0.00 0.00 0.00 97 1015.8
20260508113004 42 355 0.0 0.0 0.00 0.00 0.00 97 1015.8
20260508111502 42 355 0.0 0.0 0.00 0.00 0.00 96 1015.7
20260508110114 42 355 0.0 0.0 0.00 0.00 0.00 97 1015.7
20260508104600 42 355 0.0 0.0 0.00 0.00 0.00 97 1015.4
20260508103101 42 355 0.0 0.0 0.00 0.00 0.00 96 1015.3
20260508101559 42 355 0.0 0.0 0.00 0.00 0.00 97 1015.2
20260508100111 42 355 0.0 0.0 0.00 0.00 0.00 96 1015.3
20260508094607 42 355 0.0 0.0 0.00 0.00 0.00 96 1015.1
20260508093058 42 355 0.0 0.0 0.00 0.00 0.00 96 1015.1
20260508091603 42 355 0.0 0.0 0.00 0.00 0.00 96 1015.3
20260508090112 43 355 0.0 0.0 0.00 0.00 0.00 96 1015.4
20260508084551 43 355 0.0 0.0 0.00 0.00 0.00 96 1015.4
20260508083049 44 355 0.0 0.0 0.00 0.00 0.00 96 1015.2
20260508081602 44 355 0.0 0.0 0.00 0.00 0.00 96 1015.3
20260508080045 44 355 0.0 0.0 0.00 0.00 0.00 96 1015.5
20260508074547 44 355 0.0 0.0 0.00 0.00 0.00 96 1015.6
20260508073101 45 355 0.0 0.0 0.00 0.00 0.00 96 1015.9
20260508071540 45 355 0.0 0.0 0.00 0.00 0.00 96 1016.0
20260508070046 45 355 0.0 0.0 0.00 0.00 0.00 96 1016.1
20260508064538 45 355 0.0 0.0 0.00 0.00 0.00 96 1016.3
20260508063038 45 355 0.0 0.0 0.00 0.00 0.00 96 1016.5
20260508061541 45 355 0.0 0.0 0.00 0.00 0.00 96 1016.5
20260508060039 45 355 0.0 0.0 0.00 0.00 0.00 95 1016.4
20260508054536 46 355 0.0 1.0 0.00 0.00 0.00 95 1016.3
20260508053034 46 355 0.0 0.0 0.00 0.00 0.00 95 1016.3
20260508051528 46 355 0.0 0.0 0.00 0.00 0.00 95 1016.2
20260508050027 46 355 0.0 1.0 0.00 0.00 0.00 95 1016.1
20260508044527 47 355 0.0 0.0 0.00 0.00 0.00 94 1016.1
20260508043026 47 355 0.0 0.0 0.00 0.00 0.00 94 1016.3
20260508041526 47 355 0.0 0.0 0.00 0.00 0.00 94 1016.3
20260508040025 48 355 0.0 0.0 0.00 0.00 0.00 93 1016.3
20260508034537 48 355 0.0 0.0 0.00 0.00 0.00 93 1016.2
20260508033024 49 355 0.0 0.0 0.00 0.00 0.00 92 1016.2
20260508031524 49 355 0.0 0.0 0.00 0.00 0.00 92 1016.2
20260508030023 50 355 0.0 2.0 0.00 0.00 0.00 91 1016.1
20260508024546 50 287 0.0 0.0 0.00 0.00 0.00 90 1016.2
20260508023023 50 287 0.0 0.0 0.00 0.00 0.00 90 1015.9
20260508021523 51 287 0.0 0.0 0.00 0.00 0.00 88 1015.7
20260508020020 52 286 0.0 0.0 0.00 0.00 0.00 88 1015.4
20260508014523 53 286 0.0 1.0 0.00 0.00 0.00 87 1015.2
20260508013022 54 286 0.0 0.0 0.00 0.00 0.00 83 1015.0
20260508011521 56 286 0.0 0.0 0.00 0.00 0.00 80 1015.0
20260508010018 58 286 0.0 0.0 0.00 0.00 0.00 77 1015.1
20260508004535 60 286 0.0 0.0 0.00 0.00 0.00 73 1015.1
20260508003018 62 286 0.0 0.0 0.00 0.00 0.00 67 1015.2
20260508001530 65 286 0.0 1.0 0.00 0.00 0.00 63 1015.0
20260508000016 66 286 0.0 1.0 0.00 0.00 0.00 57 1015.1
20260507234516 68 279 0.0 2.0 0.00 0.00 0.00 51 1015.0
20260507233017 68 266 2.0 4.0 0.00 0.00 0.00 48 1015.0
20260507231514 68 355 2.0 5.0 0.00 0.00 0.00 47 1015.0
20260507230013 68 331 1.0 4.0 0.00 0.00 0.00 46 1015.2
20260507224514 68 61 2.0 4.0 0.00 0.00 0.00 46 1015.2
20260507223013 68 5 3.0 6.0 0.00 0.00 0.00 45 1015.2
20260507221512 68 355 3.0 8.0 0.00 0.00 0.00 45 1015.2
20260507220012 69 15 1.0 4.0 0.00 0.00 0.00 45 1015.2
20260507214508 69 316 2.0 8.0 0.00 0.00 0.00 43 1015.4
20260507213009 69 5 1.0 5.0 0.00 0.00 0.00 45 1015.4
20260507211505 69 257 2.0 8.0 0.00 0.00 0.00 48 1015.6
20260507210005 69 309 3.0 10.0 0.00 0.00 0.00 44 1015.7
20260507204503 68 269 2.0 8.0 0.00 0.00 0.00 46 1015.7
20260507203132 68 257 2.0 11.0 0.00 0.00 0.00 46 1016.1
20260507201557 68 223 1.0 10.0 0.00 0.00 0.00 48 1016.3
20260507200100 67 317 1.0 9.0 0.00 0.00 0.00 50 1016.4
20260507194606 67 242 3.0 9.0 0.00 0.00 0.00 49 1016.6